Date,Time,Wetness (Wet Dry or Ice),Wind Speed (m/s),Temperature (C),Humidity (%),Pressure (mb),Radiation (W/m^2)
2018-11-29,04:35:00,DRY,2.40,7.05,42.5,776.00,1.2
2018-11-29,04:40:00,DRY,3.27,7.10,46.3,776.00,0.9
2018-11-29,04:45:00,DRY,4.00,6.95,48.5,776.00,1.1
2018-11-29,04:50:00,DRY,3.50,7.03,49.0,776.00,1.1
2018-11-29,04:55:00,DRY,3.65,7.00,50.0,776.00,0.8
2018-11-29,05:00:00,DRY,3.00,7.00,49.3,776.00,1.3
2018-11-29,05:05:00,DRY,4.25,7.00,49.5,776.00,1.2
2018-11-29,05:10:00,DRY,3.70,7.33,47.7,776.00,1.3
2018-11-29,05:15:00,DRY,3.85,7.50,46.5,776.00,1.1
2018-11-29,05:20:00,DRY,4.93,7.30,48.0,776.00,1.2
2018-11-29,05:25:00,DRY,5.25,7.30,48.0,776.00,1.1
2018-11-29,05:30:00,DRY,4.40,7.30,48.0,776.00,1.2
2018-11-29,05:35:00,DRY,4.00,7.35,48.0,776.00,1.3
2018-11-29,05:40:00,DRY,4.07,7.47,47.3,776.00,1.2
2018-11-29,05:45:00,DRY,3.40,7.35,47.0,776.00,2.0
2018-11-29,05:50:00,DRY,2.70,7.60,45.7,776.00,1.0
2018-11-29,05:55:00,DRY,2.60,7.70,44.0,776.00,1.5
2018-11-29,06:00:00,DRY,2.07,7.50,44.0,776.67,2.3
2018-11-29,06:05:00,DRY,0.75,7.90,40.5,777.00,1.1
2018-11-29,06:10:00,DRY,0.73,8.30,34.0,777.00,1.7
2018-11-29,06:15:00,DRY,1.15,8.30,33.0,776.50,1.1
2018-11-29,06:20:00,DRY,0.87,7.83,33.7,777.00,1.6
2018-11-29,06:25:00,DRY,0.80,7.30,37.0,777.00,1.4
2018-11-29,06:30:00,DRY,1.67,6.97,39.7,777.00,0.9
2018-11-29,06:35:00,DRY,1.95,7.35,39.0,777.00,1.1
2018-11-29,06:40:00,DRY,1.67,7.37,40.0,777.00,2.8
2018-11-29,06:45:00,DRY,1.80,7.15,41.0,777.00,0.8
2018-11-29,06:50:00,DRY,1.60,7.07,42.7,777.00,0.9
2018-11-29,06:55:00,DRY,2.40,7.15,44.5,777.00,1.4
2018-11-29,07:00:00,DRY,1.07,7.00,43.3,777.00,1.4
2018-11-29,07:05:00,DRY,0.65,6.90,41.0,777.00,2.0
2018-11-29,07:10:00,DRY,1.53,7.17,39.7,777.00,1.3
2018-11-29,07:15:00,DRY,1.95,7.40,38.0,777.00,2.4
2018-11-29,07:20:00,DRY,1.27,7.93,32.0,777.00,1.0
2018-11-29,07:25:00,DRY,0.70,9.40,25.0,777.00,1.9
2018-11-29,07:30:00,DRY,0.47,9.47,25.0,777.00,1.8
2018-11-29,07:35:00,DRY,0.55,9.40,25.0,777.00,2.5
2018-11-29,07:40:00,DRY,0.33,9.20,24.7,777.00,4.4
2018-11-29,07:45:00,DRY,0.65,8.95,25.0,777.00,6.2
2018-11-29,07:50:00,DRY,1.10,9.50,25.0,777.00,9.5
2018-11-29,07:55:00,DRY,2.35,9.95,27.0,777.00,11.2
2018-11-29,08:00:00,DRY,1.83,10.10,27.0,777.00,12.8
2018-11-29,08:05:00,DRY,1.85,10.20,27.0,777.00,14.3
2018-11-29,08:10:00,DRY,1.57,10.03,27.0,777.00,15.5
2018-11-29,08:15:00,DRY,0.85,10.05,27.0,777.00,19.2
2018-11-29,08:20:00,DRY,0.53,9.90,27.0,777.00,20.5
2018-11-29,08:25:00,DRY,1.50,10.25,26.5,777.00,70.6
2018-11-29,08:30:00,DRY,1.73,10.60,27.0,777.00,156.0
2018-11-29,08:35:00,DRY,1.50,10.75,26.5,777.00,173.6
2018-11-29,08:40:00,DRY,1.70,10.73,27.7,777.00,194.0
2018-11-29,08:45:00,DRY,1.10,11.05,26.5,777.50,213.1
2018-11-29,08:50:00,DRY,2.30,11.17,26.3,777.00,234.8
2018-11-29,08:55:00,DRY,2.85,11.05,26.5,777.00,257.4
2018-11-29,09:00:00,DRY,1.40,11.13,25.7,777.00,279.6
2018-11-29,09:05:00,DRY,2.30,11.30,26.5,777.00,301.1
2018-11-29,09:10:00,DRY,1.63,11.13,27.7,777.00,310.9
2018-11-29,09:15:00,DRY,1.90,11.15,27.5,777.00,343.5
2018-11-29,09:20:00,DRY,2.17,11.27,27.0,777.00,358.8
2018-11-29,09:25:00,DRY,1.55,11.45,27.0,777.00,362.8
2018-11-29,09:30:00,DRY,2.33,11.43,26.7,777.00,309.6
2018-11-29,09:35:00,DRY,1.70,11.35,27.0,777.50,378.1
2018-11-29,09:40:00,DRY,1.23,11.67,27.0,777.00,429.3
2018-11-29,09:45:00,DRY,1.25,11.85,27.5,777.50,354.2
2018-11-29,09:50:00,DRY,0.67,11.43,27.3,778.00,360.1
2018-11-29,09:55:00,DRY,1.10,11.40,28.0,778.00,391.6
2018-11-29,10:00:00,DRY,1.90,11.63,29.0,778.00,428.1
2018-11-29,10:05:00,DRY,1.40,11.75,27.0,778.00,465.8
2018-11-29,10:10:00,DRY,0.97,12.23,27.7,778.00,499.1
2018-11-29,10:15:00,DRY,0.70,12.45,26.5,778.00,514.0
2018-11-29,10:20:00,DRY,0.93,11.50,28.3,778.00,527.4
2018-11-29,10:25:00,DRY,0.95,11.40,28.5,777.50,540.1
2018-11-29,10:30:00,DRY,1.17,11.73,28.7,777.67,553.8
2018-11-29,10:35:00,DRY,0.65,11.40,30.5,777.50,566.6
2018-11-29,10:40:00,DRY,1.10,11.83,27.7,777.00,580.4
2018-11-29,10:45:00,DRY,0.75,12.35,28.0,777.50,586.1
2018-11-29,10:50:00,DRY,0.80,12.13,28.0,777.67,611.6
2018-11-29,10:55:00,DRY,1.70,11.95,32.5,777.00,608.2
2018-11-29,11:00:00,DRY,2.13,11.90,32.0,777.33,625.2
2018-11-29,11:05:00,DRY,1.60,12.05,31.0,777.50,625.6
2018-11-29,11:10:00,DRY,2.10,11.93,31.3,777.67,648.9
2018-11-29,11:15:00,DRY,1.70,12.00,30.0,778.00,654.2
2018-11-29,11:20:00,DRY,2.07,12.17,31.0,778.00,661.4
2018-11-29,11:25:00,DRY,1.65,12.05,30.5,777.50,670.0
2018-11-29,11:30:00,DRY,1.67,12.40,30.7,778.00,678.2
2018-11-29,11:35:00,DRY,1.85,12.50,30.0,778.00,686.9
2018-11-29,11:40:00,DRY,1.43,12.33,28.3,777.00,691.7
2018-11-29,11:45:00,DRY,2.30,12.10,28.0,777.50,698.7
2018-11-29,11:50:00,DRY,1.63,12.50,30.0,777.00,708.0
2018-11-29,11:55:00,DRY,1.60,13.00,29.5,777.00,715.0
2018-11-29,12:00:00,DRY,0.97,12.90,28.0,777.33,716.3
2018-11-29,12:05:00,DRY,0.45,13.20,29.5,777.00,719.9
2018-11-29,12:10:00,DRY,0.93,13.30,29.3,777.00,746.8
2018-11-29,12:15:00,DRY,1.30,12.65,32.5,777.00,779.9
2018-11-29,12:20:00,DRY,0.97,11.87,36.0,777.00,796.5
2018-11-29,12:25:00,DRY,0.80,12.10,40.0,777.00,425.9
2018-11-29,12:30:00,DRY,0.50,12.50,37.3,777.00,622.4
2018-11-29,12:35:00,DRY,0.85,12.50,39.0,777.00,625.0
2018-11-29,12:40:00,DRY,1.27,12.57,40.0,777.00,753.4
2018-11-29,12:45:00,DRY,0.80,12.00,41.0,777.00,752.8
2018-11-29,12:50:00,DRY,1.13,12.07,40.0,777.00,755.4
2018-11-29,12:55:00,DRY,0.90,11.65,39.0,777.00,763.3
2018-11-29,13:00:00,DRY,0.67,11.97,41.0,777.00,697.4
2018-11-29,13:05:00,DRY,1.00,12.35,42.0,777.00,736.5
2018-11-29,13:10:00,DRY,1.27,12.57,41.7,777.00,753.0
2018-11-29,13:15:00,DRY,1.20,12.15,44.5,777.00,753.0
2018-11-29,13:20:00,DRY,1.27,12.10,46.3,777.00,746.2
2018-11-29,13:25:00,DRY,0.95,12.35,45.5,777.00,715.2
2018-11-29,13:30:00,DRY,1.20,12.30,45.0,777.00,740.5
2018-11-29,13:35:00,DRY,1.10,11.80,49.0,776.00,731.0
2018-11-29,13:40:00,DRY,1.10,11.80,51.3,776.67,725.4
2018-11-29,13:45:00,DRY,0.60,12.25,51.0,776.50,720.0
2018-11-29,13:50:00,DRY,1.10,12.57,50.0,776.00,716.6
2018-11-29,13:55:00,DRY,0.90,12.15,49.5,776.50,712.5
2018-11-29,14:00:00,DRY,0.90,12.20,51.3,776.00,707.4
2018-11-29,14:05:00,DRY,0.85,12.85,46.0,776.00,702.2
2018-11-29,14:10:00,DRY,1.00,12.03,52.0,776.00,694.4
2018-11-29,14:15:00,DRY,1.10,11.75,52.0,776.00,687.8
2018-11-29,14:20:00,DRY,1.00,11.53,55.0,776.00,681.9
2018-11-29,14:25:00,DRY,0.70,11.95,51.0,776.00,673.9
2018-11-29,14:30:00,DRY,0.87,12.50,47.7,776.00,666.7
2018-11-29,14:35:00,DRY,1.35,12.80,49.0,776.00,657.9
2018-11-29,14:40:00,DRY,0.90,12.10,49.0,776.00,647.4
2018-11-29,14:45:00,DRY,1.35,11.75,50.0,776.00,638.5
2018-11-29,14:50:00,DRY,1.20,11.63,53.0,776.00,627.4
2018-11-29,14:55:00,DRY,1.10,11.35,49.0,776.00,618.3
2018-11-29,15:00:00,DRY,1.03,11.97,43.7,776.00,607.0
2018-11-29,15:05:00,DRY,1.15,12.00,43.5,776.00,596.1
2018-11-29,15:10:00,DRY,0.87,11.27,44.7,776.00,583.7
2018-11-29,15:15:00,DRY,1.15,11.35,43.5,776.00,571.5
2018-11-29,15:20:00,DRY,1.10,11.73,40.7,776.00,559.8
2018-11-29,15:25:00,DRY,1.20,11.75,42.5,776.00,548.1
2018-11-29,15:30:00,DRY,1.17,11.87,39.7,776.00,533.0
2018-11-29,15:35:00,DRY,1.15,11.40,39.0,776.00,519.1
2018-11-29,15:40:00,DRY,1.70,11.70,39.7,776.00,505.3
2018-11-29,15:45:00,DRY,1.70,12.20,32.0,776.00,491.8
2018-11-29,15:50:00,DRY,1.53,12.27,32.3,776.00,476.4
2018-11-29,15:55:00,DRY,1.40,12.55,35.0,776.00,461.5
2018-11-29,16:00:00,DRY,1.87,12.23,33.3,776.00,444.9
2018-11-29,16:05:00,DRY,1.25,12.10,36.0,776.00,428.7
2018-11-29,16:10:00,DRY,2.23,12.27,35.7,776.00,413.7
2018-11-29,16:15:00,DRY,1.50,12.35,34.5,776.00,397.6
2018-11-29,16:20:00,DRY,1.43,12.57,30.3,776.00,381.0
2018-11-29,16:25:00,DRY,1.55,12.55,29.5,776.00,363.0
2018-11-29,16:30:00,DRY,1.37,12.13,30.3,776.67,346.3
2018-11-29,16:35:00,DRY,2.10,11.65,32.0,776.00,328.9
2018-11-29,16:40:00,DRY,1.53,11.47,34.3,776.33,310.2
2018-11-29,16:45:00,DRY,1.05,11.40,33.5,776.50,293.1
2018-11-29,16:50:00,DRY,0.77,12.20,30.3,776.33,275.6
2018-11-29,16:55:00,DRY,1.85,12.30,26.0,776.50,256.2
2018-11-29,17:00:00,DRY,1.43,12.27,26.7,777.00,238.4
2018-11-29,17:05:00,DRY,0.95,12.15,26.5,777.00,220.3
2018-11-29,17:10:00,DRY,1.30,12.40,24.7,777.00,201.8
2018-11-29,17:15:00,DRY,0.60,12.40,26.5,776.50,184.9
2018-11-29,17:20:00,DRY,1.07,12.27,26.0,777.00,167.9
2018-11-29,17:25:00,DRY,0.30,12.45,26.0,777.00,150.8
2018-11-29,17:30:00,DRY,0.53,12.53,26.7,777.00,132.4
2018-11-29,17:35:00,DRY,1.35,11.90,25.5,777.00,109.8
2018-11-29,17:40:00,DRY,0.77,11.27,28.3,777.00,86.1
2018-11-29,17:45:00,DRY,1.85,10.95,28.0,777.00,65.2
2018-11-29,17:50:00,DRY,1.70,10.53,27.0,777.00,46.9
2018-11-29,17:55:00,DRY,1.25,10.60,27.5,777.00,33.3
2018-11-29,18:00:00,DRY,1.33,10.43,27.3,777.00,21.8
2018-11-29,18:05:00,DRY,1.90,10.10,26.0,777.00,15.3
2018-11-29,18:10:00,DRY,2.00,9.83,25.7,777.00,12.7
2018-11-29,18:15:00,DRY,1.60,9.80,25.0,777.00,9.4
2018-11-29,18:20:00,DRY,1.30,9.90,25.7,777.00,5.1
2018-11-29,18:25:00,DRY,1.45,9.85,26.5,777.00,4.3
2018-11-29,18:30:00,DRY,2.07,9.60,27.7,777.00,1.7
2018-11-29,18:35:00,DRY,2.40,9.45,28.5,777.00,1.9
2018-11-29,18:40:00,DRY,1.70,9.43,28.0,777.00,1.3
2018-11-29,18:45:00,DRY,1.55,9.40,28.0,777.00,1.4
2018-11-29,18:50:00,DRY,1.67,9.37,27.3,777.00,1.5
2018-11-29,18:55:00,DRY,1.90,9.30,27.5,777.00,1.6
2018-11-29,19:00:00,DRY,1.73,9.40,27.0,777.00,1.6
2018-11-29,19:05:00,DRY,1.65,9.20,27.5,777.00,1.2
2018-11-29,19:10:00,DRY,1.53,9.10,28.0,777.67,1.6
2018-11-29,19:15:00,DRY,2.00,9.10,28.0,777.50,1.3
2018-11-29,19:20:00,DRY,2.03,9.03,28.7,778.00,1.5
2018-11-29,19:25:00,DRY,1.30,9.15,27.0,778.00,1.0
2018-11-29,19:30:00,DRY,1.03,9.10,28.0,778.00,1.3
2018-11-29,19:35:00,DRY,1.45,9.35,27.0,778.00,1.4
2018-11-29,19:40:00,DRY,0.70,9.10,27.3,778.00,1.1
2018-11-29,19:45:00,DRY,0.65,8.90,27.0,778.00,1.6
2018-11-29,19:50:00,DRY,0.73,8.90,29.0,778.00,0.7
2018-11-29,19:55:00,DRY,1.00,8.95,29.0,778.00,1.0
2018-11-29,20:00:00,DRY,1.37,9.17,28.0,778.00,0.7
2018-11-29,20:05:00,DRY,0.90,9.15,27.0,778.00,1.4
2018-11-29,20:10:00,DRY,1.47,9.30,27.0,778.00,0.9
2018-11-29,20:15:00,DRY,1.90,9.00,27.5,778.00,1.0
2018-11-29,20:20:00,DRY,1.27,9.17,26.7,778.00,1.6
2018-11-29,20:25:00,DRY,1.05,9.25,27.0,778.00,1.4
2018-11-29,20:30:00,DRY,0.80,9.27,27.7,778.00,0.9
2018-11-29,20:35:00,DRY,1.00,9.30,27.5,778.00,2.2
2018-11-29,20:40:00,DRY,0.43,9.13,27.3,778.00,1.1
2018-11-29,20:45:00,DRY,0.30,8.75,27.5,778.00,1.7
2018-11-29,20:50:00,DRY,0.37,8.80,28.0,778.00,1.4
2018-11-29,20:55:00,DRY,0.40,8.85,28.5,778.00,0.8
2018-11-29,21:00:00,DRY,0.60,8.87,27.7,778.00,1.4
2018-11-29,21:05:00,DRY,1.00,8.95,27.5,778.00,1.6
2018-11-29,21:10:00,DRY,0.63,9.23,28.0,778.00,1.1
2018-11-29,21:15:00,DRY,0.50,9.30,27.0,778.00,1.5
2018-11-29,21:20:00,DRY,0.37,9.40,26.3,778.00,1.5
2018-11-29,21:25:00,DRY,0.35,9.30,26.0,778.00,0.8
2018-11-29,21:30:00,DRY,0.47,9.23,26.0,778.00,0.7
2018-11-29,21:35:00,DRY,0.45,9.30,26.0,778.00,1.1
2018-11-29,21:40:00,DRY,0.30,9.03,26.7,778.00,1.0
2018-11-29,21:45:00,DRY,0.65,8.70,28.5,778.00,1.5
2018-11-29,21:50:00,DRY,1.07,8.90,29.0,778.00,1.4
2018-11-29,21:55:00,DRY,1.30,8.90,28.5,778.00,0.4
2018-11-29,22:00:00,DRY,0.60,8.93,28.0,778.00,1.4
2018-11-29,22:05:00,DRY,0.25,9.10,28.0,778.00,1.4
2018-11-29,22:10:00,DRY,0.57,9.17,27.0,778.00,1.6
2018-11-29,22:15:00,DRY,0.60,9.15,28.0,778.00,1.0
2018-11-29,22:20:00,DRY,0.27,8.83,28.3,778.00,1.1
2018-11-29,22:25:00,DRY,0.50,8.55,29.0,778.00,1.1
2018-11-29,22:30:00,DRY,0.63,8.77,28.7,778.00,0.8
2018-11-29,22:35:00,DRY,0.30,8.75,29.0,778.00,1.1
2018-11-29,22:40:00,DRY,0.57,8.73,27.0,778.00,0.7
2018-11-29,22:45:00,DRY,0.45,8.95,27.5,778.00,1.4
2018-11-29,22:50:00,DRY,0.70,8.83,28.0,778.00,1.7
2018-11-29,22:55:00,DRY,1.05,8.95,28.0,778.00,0.4
2018-11-29,23:00:00,DRY,0.93,8.93,28.0,778.00,1.5
2018-11-29,23:05:00,DRY,1.10,8.85,29.0,778.00,2.0
2018-11-29,23:10:00,DRY,1.33,8.63,29.0,778.00,1.4
2018-11-29,23:15:00,DRY,1.25,8.65,29.0,778.00,1.5
2018-11-29,23:20:00,DRY,1.40,8.77,28.0,778.00,1.5
2018-11-29,23:25:00,DRY,1.45,8.75,28.0,778.00,0.9
2018-11-29,23:30:00,DRY,1.67,8.60,28.7,778.00,0.5
2018-11-29,23:35:00,DRY,1.10,8.80,28.5,778.00,2.0
2018-11-29,23:40:00,DRY,0.93,8.73,30.0,778.00,1.3
2018-11-29,23:45:00,DRY,0.60,8.70,29.5,778.00,1.3
2018-11-29,23:50:00,DRY,0.67,8.93,28.3,778.00,1.4
2018-11-29,23:55:00,DRY,1.35,9.25,27.0,778.00,1.2
2018-11-30,00:00:00,DRY,1.00,9.13,29.0,778.00,2.1
2018-11-30,00:05:00,DRY,1.25,8.80,30.0,778.00,1.8
2018-11-30,00:10:00,DRY,1.07,8.83,28.7,778.00,1.1
2018-11-30,00:15:00,DRY,1.80,9.25,27.0,778.00,1.8
2018-11-30,00:20:00,DRY,1.33,9.43,25.3,778.00,1.6
2018-11-30,00:25:00,DRY,1.00,9.50,25.0,778.00,1.8
2018-11-30,00:30:00,DRY,0.63,8.87,26.7,778.00,1.5
2018-11-30,00:35:00,DRY,0.80,8.65,25.5,778.00,1.8
2018-11-30,00:40:00,DRY,2.37,8.97,25.7,778.00,0.8
2018-11-30,00:45:00,DRY,1.85,8.15,31.5,778.00,1.4
2018-11-30,00:50:00,DRY,2.17,7.73,32.7,778.00,0.9
2018-11-30,00:55:00,DRY,1.25,8.00,32.0,778.00,1.7
2018-11-30,01:00:00,DRY,0.77,8.23,29.0,778.00,1.8
2018-11-30,01:05:00,DRY,0.85,9.15,23.5,778.00,1.9
2018-11-30,01:10:00,DRY,0.93,9.03,25.3,778.00,1.9
2018-11-30,01:15:00,DRY,1.75,8.25,27.0,778.00,1.5
2018-11-30,01:20:00,DRY,2.57,8.07,27.7,778.00,1.4
2018-11-30,01:25:00,DRY,2.60,8.15,29.0,778.00,0.8
2018-11-30,01:30:00,DRY,2.00,9.17,25.0,778.00,1.0
2018-11-30,01:35:00,DRY,1.50,8.80,26.0,778.00,1.8
2018-11-30,01:40:00,DRY,0.97,8.87,26.0,778.00,1.9
2018-11-30,01:45:00,DRY,0.70,8.45,27.5,778.00,1.3
2018-11-30,01:50:00,DRY,1.30,8.60,26.7,778.00,1.7
2018-11-30,01:55:00,DRY,2.55,9.15,26.0,778.00,0.9
2018-11-30,02:00:00,DRY,2.40,8.97,25.7,778.00,0.8
2018-11-30,02:05:00,DRY,2.20,9.30,24.0,778.00,1.1
2018-11-30,02:10:00,DRY,1.73,9.20,24.0,778.00,1.3
2018-11-30,02:15:00,DRY,0.80,8.70,25.5,777.50,1.0
2018-11-30,02:20:00,DRY,0.67,8.43,26.0,778.00,2.0
2018-11-30,02:25:00,DRY,0.90,8.45,26.0,777.50,0.5
2018-11-30,02:30:00,DRY,1.13,8.70,25.0,777.00,1.4
2018-11-30,02:35:00,DRY,1.30,8.55,25.0,777.50,1.1
2018-11-30,02:40:00,DRY,1.17,8.23,26.0,777.67,2.0
2018-11-30,02:45:00,DRY,1.10,8.05,26.0,777.00,0.6
2018-11-30,02:50:00,DRY,1.63,8.00,26.0,777.00,1.7
2018-11-30,02:55:00,DRY,0.80,8.00,26.0,777.00,1.4
2018-11-30,03:00:00,DRY,0.97,8.07,25.0,777.00,1.4
2018-11-30,03:05:00,DRY,1.70,8.05,26.0,777.00,1.8
2018-11-30,03:10:00,DRY,1.30,8.10,25.7,777.00,1.2
2018-11-30,03:15:00,DRY,1.15,8.05,26.0,777.00,0.8
2018-11-30,03:20:00,DRY,1.03,7.80,26.7,777.00,1.5
2018-11-30,03:25:00,DRY,1.05,7.75,27.0,777.00,1.4
2018-11-30,03:30:00,DRY,1.33,7.93,26.3,777.00,1.4
2018-11-30,03:35:00,DRY,1.30,8.35,24.5,777.00,1.2
2018-11-30,03:40:00,DRY,1.53,8.53,22.7,777.00,1.4
2018-11-30,03:45:00,DRY,1.30,8.60,22.0,777.00,0.8
2018-11-30,03:50:00,DRY,1.23,8.47,22.3,777.00,0.4
2018-11-30,03:55:00,DRY,1.20,8.20,23.0,777.00,1.0
2018-11-30,04:00:00,DRY,2.13,8.37,22.7,777.00,1.5
2018-11-30,04:05:00,DRY,1.45,8.50,21.5,777.00,0.9
2018-11-30,04:10:00,DRY,1.13,8.60,20.0,777.00,1.4
2018-11-30,04:15:00,DRY,2.30,8.65,19.5,777.00,1.5
2018-11-30,04:20:00,DRY,2.60,9.10,18.0,777.00,1.6
2018-11-30,04:25:00,DRY,3.05,9.25,19.0,777.00,1.4
2018-11-30,04:30:00,DRY,1.83,9.00,18.7,777.00,1.0
2018-11-30,04:35:00,DRY,2.75,9.25,18.0,777.00,1.6
2018-11-30,04:40:00,DRY,1.87,9.47,18.3,777.00,0.3
2018-11-30,04:45:00,DRY,2.05,9.45,19.5,777.00,2.0
2018-11-30,04:50:00,DRY,2.70,9.37,19.3,777.00,0.8
2018-11-30,04:55:00,DRY,2.10,9.50,18.5,777.00,1.1
2018-11-30,05:00:00,DRY,1.60,9.37,18.0,777.00,0.8
2018-11-30,05:05:00,DRY,1.15,9.20,18.5,777.00,0.9
2018-11-30,05:10:00,DRY,1.23,9.00,19.3,777.00,0.8
2018-11-30,05:15:00,DRY,1.00,8.55,21.5,777.00,0.7
2018-11-30,05:20:00,DRY,1.93,8.57,21.3,777.00,0.8
2018-11-30,05:25:00,DRY,2.45,9.15,18.5,777.00,0.7
2018-11-30,05:30:00,DRY,1.17,9.13,18.7,777.00,1.2
2018-11-30,05:35:00,DRY,1.40,9.20,17.5,777.00,1.4
2018-11-30,05:40:00,DRY,1.90,9.20,18.0,777.00,1.7
2018-11-30,05:45:00,DRY,1.85,8.95,19.0,777.00,0.6
2018-11-30,05:50:00,DRY,1.60,8.43,20.7,777.00,1.3
2018-11-30,05:55:00,DRY,1.90,8.10,22.0,777.00,1.3
2018-11-30,06:00:00,DRY,1.17,8.07,22.0,777.00,1.2
2018-11-30,06:05:00,DRY,1.80,8.30,22.0,777.00,1.2
2018-11-30,06:10:00,DRY,1.70,8.37,21.7,777.00,0.6
2018-11-30,06:15:00,DRY,1.55,8.05,22.5,777.00,1.0
2018-11-30,06:20:00,DRY,1.57,8.17,22.7,777.00,0.9
2018-11-30,06:25:00,DRY,1.00,8.05,23.5,777.00,0.6
2018-11-30,06:30:00,DRY,2.30,7.83,23.3,777.00,0.9
2018-11-30,06:35:00,DRY,1.40,8.05,21.5,777.00,1.5
2018-11-30,06:40:00,DRY,1.50,8.43,19.0,777.00,1.0
2018-11-30,06:45:00,DRY,2.20,8.85,18.0,777.00,0.5
2018-11-30,06:50:00,DRY,1.37,8.80,17.3,777.00,1.1
2018-11-30,06:55:00,DRY,1.75,8.90,17.0,777.00,0.2
2018-11-30,07:00:00,DRY,1.27,8.60,19.0,777.00,0.8
2018-11-30,07:05:00,DRY,1.20,8.10,20.0,777.00,1.1
2018-11-30,07:10:00,DRY,1.50,7.90,19.7,777.33,1.8
2018-11-30,07:15:00,DRY,0.95,7.65,21.0,777.00,1.8
2018-11-30,07:20:00,DRY,1.10,7.63,21.3,777.67,0.9
2018-11-30,07:25:00,DRY,1.05,7.60,20.5,778.00,1.5
2018-11-30,07:30:00,DRY,1.27,8.20,18.7,778.00,1.8
2018-11-30,07:35:00,DRY,0.90,8.25,18.0,778.00,3.8
2018-11-30,07:40:00,DRY,1.00,8.03,18.3,778.00,6.3
2018-11-30,07:45:00,DRY,0.80,8.05,17.0,778.00,7.3
2018-11-30,07:50:00,DRY,0.73,7.97,15.7,778.00,10.7
2018-11-30,07:55:00,DRY,0.60,8.05,13.5,778.00,15.6
2018-11-30,08:00:00,DRY,0.47,8.47,12.0,778.00,20.3
2018-11-30,08:05:00,DRY,1.10,8.75,11.5,778.00,26.3
2018-11-30,08:10:00,DRY,0.63,9.10,11.0,778.00,33.1
2018-11-30,08:15:00,DRY,0.75,9.00,12.5,778.00,39.5
2018-11-30,08:20:00,DRY,1.03,8.70,13.0,778.00,45.6
2018-11-30,08:25:00,DRY,0.70,9.35,12.0,778.00,69.1
2018-11-30,08:30:00,DRY,0.37,9.70,12.7,778.00,154.7
2018-11-30,08:35:00,DRY,0.50,9.70,13.5,778.00,171.9
2018-11-30,08:40:00,DRY,0.83,9.27,16.7,778.00,192.9
2018-11-30,08:45:00,DRY,1.00,9.40,17.5,778.00,228.3
2018-11-30,08:50:00,DRY,1.70,8.77,19.7,778.00,245.4
2018-11-30,08:55:00,DRY,1.10,9.15,26.0,778.00,216.2
2018-11-30,09:00:00,DRY,1.83,9.43,27.0,778.00,248.9
2018-11-30,09:05:00,DRY,1.00,9.40,24.0,778.00,266.1
2018-11-30,09:10:00,DRY,1.23,9.77,19.7,778.00,280.2
2018-11-30,09:15:00,DRY,1.35,9.90,17.5,778.00,288.8
2018-11-30,09:20:00,DRY,1.27,9.67,18.3,778.00,271.2
2018-11-30,09:25:00,DRY,1.80,9.60,15.0,778.00,224.2
2018-11-30,09:30:00,DRY,0.77,10.00,12.3,778.00,253.3
2018-11-30,09:35:00,DRY,1.10,10.40,10.0,778.00,342.8
2018-11-30,09:40:00,DRY,0.57,10.87,11.7,778.00,381.2
2018-11-30,09:45:00,DRY,1.10,10.95,11.0,778.00,460.4
2018-11-30,09:50:00,DRY,0.47,10.87,15.0,778.00,463.3
2018-11-30,09:55:00,DRY,1.15,11.20,11.5,778.00,452.9
2018-11-30,10:00:00,DRY,1.30,11.30,11.0,778.00,393.6
2018-11-30,10:05:00,DRY,0.75,11.20,12.0,778.00,346.6
2018-11-30,10:10:00,DRY,0.60,11.33,13.0,778.00,388.6
2018-11-30,10:15:00,DRY,0.55,11.60,11.5,778.00,452.8
2018-11-30,10:20:00,DRY,1.23,11.57,11.0,778.00,521.0
2018-11-30,10:25:00,DRY,1.55,11.55,12.0,778.00,550.0
2018-11-30,10:30:00,DRY,0.73,11.40,15.7,778.00,553.1
2018-11-30,10:35:00,DRY,1.45,11.40,16.5,778.00,549.3
2018-11-30,10:40:00,DRY,1.17,11.53,21.3,778.00,557.0
2018-11-30,10:45:00,DRY,1.35,11.90,15.0,778.00,585.2
2018-11-30,10:50:00,DRY,1.10,11.57,12.0,778.00,603.3
2018-11-30,10:55:00,DRY,1.45,11.35,17.0,778.00,609.0
2018-11-30,11:00:00,DRY,0.53,11.53,20.0,778.00,618.5
2018-11-30,11:05:00,DRY,0.50,11.50,18.5,778.00,629.7
2018-11-30,11:10:00,WET,1.17,11.93,19.3,778.00,639.5
2018-11-30,11:15:00,DRY,1.80,11.85,27.0,778.00,652.8
2018-11-30,11:20:00,DRY,1.07,11.60,30.3,778.00,625.7
2018-11-30,11:25:00,DRY,1.30,11.35,29.5,778.00,661.9
2018-11-30,11:30:00,DRY,1.80,11.77,28.7,778.00,676.8
2018-11-30,11:35:00,DRY,1.20,11.85,25.5,778.00,684.8
2018-11-30,11:40:00,DRY,0.93,12.17,21.0,778.00,689.8
2018-11-30,11:45:00,DRY,1.00,12.70,22.0,778.00,697.4
2018-11-30,11:50:00,DRY,1.63,12.57,27.0,778.00,703.2
2018-11-30,11:55:00,DRY,1.00,12.70,16.5,778.00,703.5
2018-11-30,12:00:00,DRY,0.87,12.37,40.3,778.00,708.9
2018-11-30,12:05:00,DRY,0.80,12.65,40.5,778.00,716.5
2018-11-30,12:10:00,DRY,1.03,12.07,41.7,778.00,722.3
2018-11-30,12:15:00,DRY,0.75,12.15,38.5,778.00,726.8
2018-11-30,12:20:00,DRY,0.80,12.70,30.3,778.00,726.6
2018-11-30,12:25:00,DRY,1.00,12.80,29.5,778.00,731.5
2018-11-30,12:30:00,DRY,1.10,12.40,29.7,777.33,736.1
2018-11-30,12:35:00,DRY,1.45,12.10,32.5,777.00,739.8
2018-11-30,12:40:00,DRY,1.23,11.67,46.0,777.00,740.1
2018-11-30,12:45:00,DRY,1.20,11.75,48.0,777.00,742.5
2018-11-30,12:50:00,DRY,1.47,11.63,38.3,777.00,743.7
2018-11-30,12:55:00,DRY,1.20,11.60,38.5,777.00,744.9
2018-11-30,13:00:00,DRY,1.80,12.27,34.7,777.00,746.7
2018-11-30,13:05:00,DRY,1.40,12.60,34.0,777.00,741.1
2018-11-30,13:10:00,DRY,2.63,11.97,28.0,777.00,744.1
2018-11-30,13:15:00,DRY,1.60,11.35,32.0,777.00,743.2
2018-11-30,13:20:00,DRY,1.13,10.90,35.7,777.00,741.6
2018-11-30,13:25:00,DRY,1.30,11.90,34.5,777.00,738.8
2018-11-30,13:30:00,DRY,2.90,12.30,38.0,777.00,738.7
2018-11-30,13:35:00,DRY,0.40,12.10,31.0,777.00,733.1
2018-11-30,13:40:00,DRY,1.57,12.33,29.0,777.00,729.4
2018-11-30,13:45:00,DRY,1.85,12.20,27.5,777.00,726.8
2018-11-30,13:50:00,DRY,1.10,11.87,30.7,777.00,724.7
2018-11-30,13:55:00,DRY,0.75,12.00,36.5,777.00,722.4
2018-11-30,14:00:00,DRY,1.60,12.03,32.7,777.00,728.2
2018-11-30,14:05:00,DRY,2.30,12.15,35.5,777.00,732.5
2018-11-30,14:10:00,DRY,3.00,11.77,33.0,777.00,742.9
2018-11-30,14:15:00,DRY,3.15,11.65,26.5,777.00,763.3
2018-11-30,14:20:00,DRY,2.67,11.87,24.3,777.00,775.8
2018-11-30,14:25:00,DRY,3.95,11.40,28.0,777.00,755.8
2018-11-30,14:30:00,DRY,3.27,11.40,26.7,777.00,512.2
2018-11-30,14:35:00,DRY,3.55,10.85,25.0,777.00,467.0
2018-11-30,14:40:00,DRY,2.27,11.17,25.3,777.00,595.7
2018-11-30,14:45:00,DRY,2.40,11.15,27.0,777.00,497.0
2018-11-30,14:50:00,DRY,2.80,11.13,28.7,777.00,531.7
2018-11-30,14:55:00,DRY,1.35,11.55,28.5,776.50,504.6
2018-11-30,15:00:00,DRY,2.30,11.63,27.0,776.00,430.6
2018-11-30,15:05:00,DRY,1.40,11.50,27.5,776.00,416.8
2018-11-30,15:10:00,DRY,1.80,11.57,28.0,776.33,460.8
2018-11-30,15:15:00,DRY,3.35,11.15,31.5,776.00,382.1
2018-11-30,15:20:00,DRY,2.77,10.70,33.7,776.33,354.9
2018-11-30,15:25:00,DRY,1.30,10.50,33.0,776.00,369.3
2018-11-30,15:30:00,DRY,2.60,10.40,32.7,776.33,388.9
2018-11-30,15:35:00,DRY,3.20,10.75,31.5,776.00,410.4
2018-11-30,15:40:00,DRY,1.83,10.53,33.7,776.33,428.3
2018-11-30,15:45:00,DRY,2.70,10.30,33.0,777.00,464.1
2018-11-30,15:50:00,DRY,3.10,10.17,33.3,776.67,475.2
2018-11-30,15:55:00,DRY,2.10,10.45,30.0,776.00,444.3
2018-11-30,16:00:00,DRY,2.63,10.13,30.7,776.33,449.0
2018-11-30,16:05:00,DRY,2.00,10.35,31.5,776.50,428.0
2018-11-30,16:10:00,DRY,2.60,10.03,32.0,776.33,375.6
2018-11-30,16:15:00,DRY,2.45,9.80,31.5,776.50,378.4
2018-11-30,16:20:00,DRY,2.50,9.97,33.3,777.00,378.1
2018-11-30,16:25:00,DRY,2.80,9.90,34.0,777.00,360.0
2018-11-30,16:30:00,DRY,2.23,9.73,36.7,777.00,332.2
2018-11-30,16:35:00,DRY,2.65,9.85,34.0,777.00,318.1
2018-11-30,16:40:00,DRY,2.00,9.67,34.7,777.00,306.4
2018-11-30,16:45:00,DRY,2.75,9.65,34.5,777.00,290.0
2018-11-30,16:50:00,DRY,2.27,9.77,32.7,777.00,271.0
2018-11-30,16:55:00,DRY,2.90,9.50,32.5,777.00,253.3
2018-11-30,17:00:00,DRY,3.17,9.23,33.0,777.00,235.2
2018-11-30,17:05:00,DRY,2.65,8.95,29.0,777.00,217.9
2018-11-30,17:10:00,DRY,2.70,9.10,29.3,777.00,200.0
2018-11-30,17:15:00,DRY,2.40,9.10,28.0,777.00,181.7
2018-11-30,17:20:00,DRY,2.70,8.97,28.7,777.00,148.6
2018-11-30,17:25:00,DRY,2.45,8.75,26.5,777.00,137.9
2018-11-30,17:30:00,DRY,3.23,8.60,27.3,777.00,126.9
2018-11-30,17:35:00,DRY,2.85,8.20,26.0,777.00,105.8
2018-11-30,17:40:00,DRY,3.07,8.17,23.7,777.00,77.1
2018-11-30,17:45:00,DRY,2.85,8.05,22.5,777.00,41.8
2018-11-30,17:50:00,DRY,3.17,7.93,29.7,777.00,16.9
2018-11-30,17:55:00,DRY,3.40,7.80,32.0,777.00,14.1
2018-11-30,18:00:00,DRY,2.90,7.90,29.3,777.00,11.1
2018-11-30,18:05:00,DRY,2.70,7.80,35.5,777.00,8.3
2018-11-30,18:10:00,DRY,2.40,7.67,36.7,777.00,7.2
2018-11-30,18:15:00,DRY,3.30,7.65,30.5,777.00,6.6
2018-11-30,18:20:00,DRY,2.90,7.57,28.7,777.00,4.4
2018-11-30,18:25:00,DRY,3.70,7.50,32.0,777.00,2.8
2018-11-30,18:30:00,DRY,3.27,7.43,29.7,777.00,1.6
2018-11-30,18:35:00,DRY,2.95,7.70,32.0,777.00,2.2
2018-11-30,18:40:00,DRY,2.90,7.50,34.0,777.00,1.3
2018-11-30,18:45:00,DRY,2.95,7.70,34.0,777.00,1.6
2018-11-30,18:50:00,DRY,2.67,7.50,36.7,777.00,1.0
2018-11-30,18:55:00,DRY,2.20,7.30,40.0,777.00,2.0
2018-11-30,19:00:00,DRY,2.43,7.43,39.7,777.00,1.2
2018-11-30,19:05:00,DRY,2.35,7.55,38.0,777.00,0.5
2018-11-30,19:10:00,DRY,3.37,7.80,33.3,777.00,1.5